Total_Precipitation_Accumulation
2.41 2.56 1.99 1.18 0.79 0.55 0.43 0.39 0.35 0.31 0.32 0.43 0.46 0.37 0.34 0.36 0.40 0.37 0.37 0.41 0.47 0.50 0.50 0.49 0.51 0.55 0.59 0.64 0.70 0.75 0.84 0.91 1.00 1.15 1.22 1.18 1.18 1.18 1.22 1.23 1.16 1.13 1.11 1.07
2.27 1.91 1.08 0.68 0.65 0.69 0.65 0.55 0.40 0.33 0.31 0.42 0.44 0.41 0.36 0.33 0.35 0.35 0.34 0.39 0.45 0.49 0.50 0.49 0.48 0.50 0.50 0.56 0.64 0.67 0.74 0.86 0.95 1.09 1.24 1.25 1.23 1.24 1.26 1.34 1.37 1.32 1.29 1.24
1.55 1.08 0.70 0.83 0.94 1.01 0.88 0.64 0.47 0.42 0.40 0.49 0.51 0.52 0.40 0.35 0.30 0.29 0.30 0.35 0.40 0.44 0.48 0.50 0.49 0.46 0.43 0.46 0.54 0.61 0.65 0.71 0.79 0.94 1.13 1.26 1.39 1.43 1.36 1.35 1.34 1.32 1.37 1.37
1.32 0.78 0.68 0.94 1.03 1.00 0.96 0.56 0.48 0.56 0.72 0.80 0.64 0.70 0.43 0.33 0.29 0.26 0.26 0.29 0.32 0.33 0.38 0.44 0.47 0.48 0.44 0.41 0.45 0.52 0.61 0.71 0.77 0.87 1.02 1.13 1.26 1.42 1.40 1.34 1.29 1.28 1.34 1.45
1.48 0.79 0.70 0.87 0.79 0.78 0.79 0.57 0.65 0.78 1.03 1.16 0.80 0.67 0.40 0.25 0.27 0.23 0.22 0.24 0.26 0.28 0.30 0.35 0.37 0.40 0.42 0.42 0.43 0.44 0.51 0.60 0.71 0.85 0.97 1.11 1.18 1.24 1.33 1.37 1.40 1.41 1.39 1.40
1.16 0.75 0.69 0.62 0.52 0.66 0.85 1.02 1.29 1.51 2.04 2.19 0.85 0.54 0.34 0.22 0.23 0.20 0.18 0.20 0.20 0.22 0.26 0.31 0.33 0.35 0.37 0.39 0.40 0.40 0.43 0.48 0.56 0.69 0.86 0.98 1.06 1.14 1.24 1.33 1.35 1.36 1.38 1.40
1.57 1.06 0.81 0.62 0.77 1.03 1.34 1.91 2.93 3.37 3.45 2.13 0.49 0.34 0.32 0.18 0.14 0.13 0.14 0.17 0.16 0.16 0.16 0.19 0.23 0.27 0.32 0.33 0.36 0.41 0.44 0.49 0.54 0.63 0.73 0.83 0.90 1.01 1.12 1.21 1.29 1.32 1.35 1.36
1.45 1.20 0.82 0.66 0.73 1.03 1.19 1.47 2.07 2.11 1.46 0.64 0.26 0.30 0.26 0.15 0.09 0.07 0.08 0.13 0.15 0.14 0.13 0.13 0.14 0.16 0.21 0.25 0.27 0.33 0.39 0.43 0.46 0.55 0.63 0.69 0.75 0.85 0.95 1.05 1.16 1.19 1.19 1.19
1.00 0.80 0.46 0.39 0.42 0.60 1.01 1.19 1.04 1.37 1.09 0.62 0.36 0.26 0.16 0.09 0.06 0.05 0.06 0.09 0.13 0.12 0.12 0.15 0.14 0.11 0.14 0.18 0.22 0.29 0.34 0.37 0.39 0.46 0.56 0.67 0.74 0.82 0.87 0.88 0.91 0.97 1.01 1.04
0.99 0.89 0.45 0.38 0.56 0.70 0.82 1.05 1.46 2.25 2.23 1.17 0.45 0.22 0.17 0.13 0.08 0.06 0.08 0.10 0.11 0.11 0.11 0.15 0.15 0.12 0.13 0.16 0.19 0.22 0.28 0.35 0.40 0.45 0.52 0.61 0.68 0.75 0.81 0.87 0.91 0.90 0.91 0.95
1.19 1.39 0.88 0.66 0.82 0.79 0.81 1.16 1.65 2.10 1.94 1.28 0.66 0.29 0.18 0.15 0.11 0.09 0.09 0.11 0.12 0.11 0.11 0.14 0.15 0.14 0.13 0.17 0.20 0.22 0.26 0.33 0.39 0.45 0.52 0.57 0.64 0.69 0.75 0.81 0.84 0.85 0.86 0.90
1.27 1.96 1.60 0.78 0.52 0.49 0.72 0.82 1.12 1.83 1.73 1.03 0.83 0.45 0.16 0.13 0.12 0.09 0.09 0.10 0.12 0.12 0.11 0.13 0.15 0.16 0.15 0.16 0.18 0.19 0.21 0.29 0.33 0.38 0.44 0.49 0.55 0.65 0.75 0.81 0.84 0.86 0.88 0.90
1.70 2.70 2.90 2.00 1.22 0.87 0.93 0.80 0.88 1.32 1.71 1.51 1.27 0.62 0.17 0.14 0.14 0.11 0.10 0.10 0.11 0.13 0.12 0.11 0.12 0.15 0.15 0.16 0.16 0.17 0.18 0.23 0.27 0.30 0.35 0.41 0.47 0.54 0.63 0.71 0.75 0.79 0.82 0.85
2.27 2.89 2.46 1.86 1.06 0.84 0.90 0.71 0.68 1.35 2.18 1.63 0.86 0.41 0.22 0.18 0.18 0.16 0.14 0.13 0.12 0.13 0.12 0.11 0.12 0.13 0.13 0.15 0.18 0.19 0.19 0.21 0.24 0.27 0.31 0.36 0.42 0.47 0.53 0.60 0.66 0.72 0.75 0.75
2.63 3.13 1.62 0.81 0.51 0.54 0.68 0.63 0.59 0.84 0.99 1.07 0.58 0.31 0.24 0.22 0.20 0.18 0.17 0.15 0.14 0.13 0.12 0.12 0.12 0.14 0.14 0.15 0.16 0.18 0.22 0.23 0.25 0.28 0.32 0.36 0.40 0.45 0.51 0.55 0.59 0.64 0.68 0.69
2.65 3.01 1.80 1.07 0.52 0.57 0.76 0.59 0.50 0.55 0.55 0.56 0.42 0.35 0.26 0.20 0.16 0.16 0.16 0.16 0.14 0.14 0.14 0.15 0.16 0.16 0.15 0.15 0.16 0.17 0.20 0.23 0.25 0.28 0.30 0.32 0.35 0.40 0.45 0.48 0.53 0.57 0.60 0.63
3.14 3.40 3.08 2.06 0.77 1.28 1.61 0.58 0.29 0.31 0.31 0.34 0.40 0.41 0.30 0.17 0.12 0.15 0.17 0.17 0.17 0.17 0.16 0.16 0.18 0.19 0.19 0.18 0.18 0.19 0.19 0.18 0.20 0.23 0.26 0.30 0.33 0.35 0.37 0.40 0.45 0.52 0.55 0.56
2.95 3.36 4.18 3.62 2.39 2.90 1.18 0.18 0.11 0.16 0.21 0.22 0.30 0.35 0.27 0.18 0.14 0.16 0.20 0.19 0.18 0.18 0.18 0.18 0.20 0.22 0.23 0.21 0.20 0.19 0.20 0.21 0.21 0.22 0.25 0.28 0.30 0.33 0.35 0.36 0.38 0.43 0.47 0.52
1.68 2.63 4.39 4.60 3.62 1.90 0.34 0.09 0.11 0.16 0.24 0.27 0.27 0.25 0.18 0.13 0.14 0.17 0.17 0.19 0.19 0.18 0.18 0.19 0.21 0.23 0.24 0.23 0.22 0.22 0.23 0.25 0.25 0.27 0.28 0.30 0.30 0.30 0.32 0.35 0.36 0.39 0.42 0.46
1.27 2.04 4.06 4.83 4.03 1.80 0.31 0.12 0.10 0.22 0.50 0.45 0.36 0.30 0.21 0.18 0.24 0.19 0.15 0.15 0.16 0.17 0.19 0.20 0.21 0.22 0.23 0.25 0.26 0.26 0.27 0.27 0.29 0.29 0.30 0.32 0.33 0.33 0.33 0.33 0.35 0.38 0.41 0.45
1.79 2.94 4.04 3.80 3.22 1.42 0.38 0.17 0.17 0.53 0.72 0.45 0.31 0.25 0.22 0.25 0.29 0.26 0.20 0.16 0.15 0.15 0.16 0.17 0.19 0.20 0.21 0.23 0.25 0.26 0.26 0.28 0.31 0.31 0.30 0.30 0.32 0.33 0.32 0.32 0.34 0.37 0.41 0.45
0.91 1.75 2.22 2.28 2.79 1.52 0.31 0.21 0.41 0.59 0.40 0.30 0.22 0.20 0.22 0.22 0.19 0.18 0.17 0.16 0.15 0.15 0.15 0.15 0.15 0.17 0.18 0.20 0.23 0.24 0.25 0.27 0.28 0.29 0.28 0.28 0.28 0.29 0.30 0.33 0.36 0.38 0.41 0.47
0.50 0.74 0.91 1.13 1.16 0.59 0.33 0.34 0.42 0.39 0.33 0.24 0.19 0.16 0.16 0.15 0.14 0.13 0.13 0.14 0.15 0.16 0.16 0.16 0.16 0.16 0.17 0.19 0.21 0.24 0.26 0.26 0.26 0.26 0.27 0.29 0.29 0.30 0.31 0.35 0.40 0.44 0.48 0.53
0.46 0.46 0.62 0.71 0.54 0.40 0.37 0.36 0.38 0.36 0.33 0.26 0.21 0.19 0.17 0.16 0.14 0.13 0.13 0.15 0.16 0.17 0.18 0.18 0.19 0.18 0.19 0.19 0.21 0.25 0.26 0.26 0.25 0.25 0.28 0.30 0.33 0.35 0.37 0.39 0.42 0.47 0.54 0.61
0.50 0.53 0.68 0.73 0.50 0.42 0.41 0.39 0.37 0.34 0.30 0.26 0.22 0.20 0.20 0.19 0.17 0.16 0.16 0.17 0.18 0.18 0.19 0.20 0.21 0.22 0.23 0.23 0.24 0.26 0.27 0.27 0.28 0.28 0.29 0.30 0.33 0.37 0.41 0.44 0.48 0.52 0.57 0.67
0.38 0.42 0.56 0.60 0.44 0.48 0.44 0.36 0.35 0.34 0.33 0.31 0.28 0.26 0.24 0.24 0.23 0.20 0.19 0.19 0.20 0.21 0.21 0.21 0.22 0.22 0.23 0.23 0.25 0.27 0.29 0.30 0.31 0.32 0.31 0.32 0.35 0.38 0.42 0.45 0.52 0.59 0.62 0.68